Location: Casilda
(33.0440°S, 61.1680°W)
Time: 09:01:36
(UTC-03:00)

ISS - Visible Passes

Search period start: 03 December 2022 00:00
Search period end: 13 December 2022 00:00
Orbit: 414 x 420 km, 51.6° (Epoch: 03 December)

Date Brightness Start Highest point End Pass type
(mag) Time Alt. Az. Time Alt. Az. Time Alt. Az.
03 Dec -0.2 02:07:06 11° SSE 02:07:06 11° SSE 02:07:21 10° SSE visible
07 Dec 0.0 05:23:29 10° SSE 05:23:47 10° SSE 05:24:05 10° SSE visible
09 Dec -0.8 05:21:45 10° SSW 05:24:31 22° SE 05:27:15 10° E visible
09 Dec -0.4 23:41:53 13° SSW 23:41:53 13° SSW 23:43:02 10° S visible
10 Dec -0.4 04:34:06 10° S 04:36:05 14° SSE 04:38:03 10° ESE visible
10 Dec -3.1 21:12:53 10° NNW 21:15:57 33° NE 21:19:02 10° ESE visible
10 Dec -1.1 22:50:06 10° W 22:52:45 21° SW 22:55:25 10° SSE visible
11 Dec -3.2 05:21:28 10° SW 05:24:53 65° SE 05:28:15 10° NE visible
11 Dec -2.0 22:01:13 10° WNW 22:04:20 34° SW 22:07:30 10° SSE visible
12 Dec -1.8 04:33:22 10° SSW 04:36:33 34° SE 04:39:41 10° ENE visible
12 Dec -3.3 21:12:39 10° NW 21:15:59 65° SW 21:19:23 10° SE visible
